[[{"header":{"parameterUnit":"m.s-1","parameterCategory":1,"la1":30.2991,"la2":30.254,"lo1":-89.0895,"lo2":-89.0444,"dy":0.0017,"dx":0.0017,"nx":28,"ny":28,"refTime":"2024-07-30T21:00:00:Z","depth":0,"parameterNumber":2,"parameterNumberName":"U-component_of_WINDS"},"data":[0,0,0,0,0,0,0,0,0,0,0,0,0,0,0,0,0,0,0,0,0,0,0,0,0,0,0,0,0,0,0,0,0,0,0,0,0,0,0,0,0,0,0,0,0,0,0,0,0,0,0,0,0,0,0,0,0,0,2.9156,2.9157,0,2.9301,2.9303,2.9304,2.929,2.9288,2.9285,2.9283,2.9434,2.944,2.9446,0,0,0,0,0,0,0,0,0,0,0,0,0,2.8868,2.8873,2.9156,2.9158,2.9159,2.9301,2.9303,2.9305,2.929,2.9288,2.9285,2.9282,2.9432,2.9439,2.9447,0,0,0,0,0,0,0,0,0,0,0,0,0,2.9001,2.8875,2.9155,2.9169,2.9172,2.93,2.9303,2.9305,2.9291,2.9288,2.9284,2.9281,2.943,2.9439,2.9448,2.9573,0,0,2.9476,2.948,0,0,0,0,0,0,0,0,2.8993,2.9012,2.9165,2.9168,2.9172,2.9274,2.9257,2.9395,2.9292,2.9246,2.9283,2.9279,2.9384,2.9397,2.9431,2.958,2.9586,2.9477,2.9482,2.9486,2.9489,0,0,0,0,0,0,0,2.8984,2.9005,2.9213,2.9168,2.9171,2.9169,2.9184,2.9283,2.9332,2.925,2.9249,2.9266,2.9385,2.9422,2.9435,2.9588,2.9476,2.9485,2.949,2.9494,2.9847,2.9851,0,0,0,0,0,0,2.8971,2.8998,2.9209,2.9218,2.9072,2.9177,2.9194,2.9245,2.9331,2.9341,2.9269,2.9265,2.9408,2.9424,2.944,2.9592,2.9486,2.9495,2.95,2.9843,2.9848,2.9852,0,0,0,0,0,0,2.8965,2.899,2.9203,2.9108,2.9134,2.9185,2.9243,2.9249,2.9287,2.9346,2.9355,2.9298,2.9406,2.9427,2.954,2.9597,2.9499,2.9507,2.9839,2.9845,2.985,2.9897,0,0,0,0,0,0,2.8957,2.8988,2.9036,2.9109,2.9139,2.93,2.9246,2.9254,2.9302,2.9299,2.9375,2.9385,2.9405,2.9526,2.9549,2.9608,2.9515,2.9834,2.9841,2.9848,2.9891,2.9904,2.9915,0,0,0,0,0,2.8947,2.9044,2.9038,2.9064,2.92,2.9303,2.9321,2.9342,2.9307,2.9356,2.9393,2.9382,2.9587,2.9538,2.9563,2.9626,2.983,2.9839,2.9847,2.9885,2.9901,2.9915,0,0,0,0,0,0,2.8977,2.9054,2.9048,2.9172,2.9231,2.93,2.9362,2.9358,2.9429,2.9422,2.9446,2.9463,2.9577,2.9613,2.9556,2.9752,2.9704,2.9718,2.9724,2.974,2.9752,2.9741,2.9522,0,0,0,0,0,2.8998,2.9075,2.9138,2.924,2.927,2.9311,2.9357,2.9368,2.943,2.9455,2.9501,2.9563,2.9641,2.9692,2.9768,2.9896,2.9912,2.9951,2.9964,2.9973,2.9986,3.0056,3.0074,2.988,2.988,2.988,0,0,2.9042,2.9094,2.9141,2.9248,2.9295,2.9374,2.9332,2.9418,2.9478,2.9469,2.9578,2.9614,2.9684,2.9805,2.9861,2.9839,3.0043,2.9984,2.9992,2.9999,3.0067,3.0085,3.0101,2.9886,2.9885,2.9884,0,0,2.9164,2.921,2.9301,2.9349,2.942,2.9447,2.9468,2.9539,2.9562,2.9672,2.9667,2.9738,2.9872,2.9922,2.9966,3.0106,3.0098,3.013,3.0194,3.0262,3.0277,3.0291,3.0341,3.0359,3.0141,3.0142,3.0142,0,2.921,2.9329,2.9348,2.9435,2.9482,2.9477,2.9569,2.9615,2.9708,2.9741,2.9715,2.9883,2.993,3.0062,3.0097,3.0132,3.0158,3.0121,3.0273,3.0287,3.03,3.0349,3.0367,3.0145,3.0145,3.0144,3.0144,0,2.9382,2.9465,2.953,2.9619,2.9673,2.9762,2.9796,2.9849,2.9855,2.9884,2.9996,3.0052,3.0139,3.0171,3.0178,3.0305,3.0289,3.0268,3.0221,3.0322,3.0368,3.0386,3.015,3.0148,3.0147,3.0147,0,0,2.9528,2.9625,2.9649,2.9689,2.9768,2.9832,2.9921,3.0005,3.005,3.0114,3.019,3.0303,3.0284,3.0333,3.0346,3.0406,3.0514,3.0378,3.038,3.0401,3.0657,3.0673,3.0694,3.0509,3.0513,3.0516,3.0652,0,2.9657,2.9814,2.9833,2.9973,3.005,3.0045,3.0123,3.018,3.021,3.028,3.0313,3.0393,3.0361,3.0391,3.045,3.0488,3.0566,3.0478,3.058,3.0584,3.0563,3.0718,3.0735,3.086,3.0669,3.0673,3.0675,0,2.9829,2.9897,3.0044,3.0112,3.0145,3.0214,3.0292,3.0359,3.0423,3.0441,3.0495,3.05,3.0593,3.0542,3.067,3.061,3.0653,3.0678,3.0683,3.0694,3.0636,3.0733,3.0901,3.092,3.0703,3.0701,3.0699,0,2.9921,3.0049,3.0154,3.0188,3.027,3.0318,3.0355,3.0416,3.0465,3.0533,3.0566,3.0644,3.0688,3.0749,3.0775,3.0735,3.0902,3.0853,3.092,3.0919,3.0956,3.0953,3.1133,3.0983,3.0983,3.0982,3.0982,0,3.0064,3.0154,3.0196,3.026,3.0361,3.0383,3.0482,3.0517,3.0571,3.0643,3.0644,3.0711,3.0742,3.0814,3.0835,3.0938,3.0958,3.0975,3.098,3.0975,3.0973,3.1004,3.0996,3.0987,3.0986,3.0985,3.0984,0,3.0183,3.0215,3.0329,3.0396,3.0415,3.0486,3.0544,3.0607,3.0636,3.0726,3.0749,3.0794,3.0879,3.0911,3.1015,3.1029,3.1149,3.1146,3.1127,3.1128,3.1193,3.1187,3.14,3.1429,3.1259,3.126,3.1262,0,3.0273,3.0342,3.0416,3.0463,3.0501,3.0578,3.0628,3.0652,3.0704,3.0782,3.0835,3.092,3.0988,3.1124,3.1167,3.1247,3.1246,3.1315,3.1258,3.1252,3.1248,3.1243,3.1251,3.1326,3.1328,3.1329,3.133,0,3.0428,3.044,3.0511,3.0588,3.0647,3.0709,3.0769,3.0808,3.0842,3.09,3.0986,3.104,3.1145,3.1229,3.131,3.1348,3.1346,3.1348,3.1368,3.1364,3.135,3.1359,3.1156,3.1343,3.1342,3.1341,3.134,3.134,3.0535,3.0597,3.0658,3.0738,3.0785,3.0841,3.0903,3.0939,3.1011,3.1098,3.1108,3.1201,3.1264,3.1373,3.1415,3.1488,3.147,3.1498,3.1506,3.1512,3.1517,3.1338,3.1503,3.1503,3.1502,3.1502,3.1502,0,3.0691,3.073,3.0803,3.0886,3.0949,3.0939,3.1005,3.1059,3.114,3.1198,3.1265,3.1365,3.1446,3.1495,3.1577,3.1626,3.1627,3.1647,3.1644,3.1652,3.1529,3.1503,3.1645,3.1645,3.1645,3.1645,3.1645,3.1645,3.0779,3.0882,3.0901,3.1028,3.1067,3.1157,3.1195,3.1247,3.1294,3.1404,3.1471,3.1502,3.1557,3.1643,3.1717,3.1729,3.176,3.1781,3.1792,3.1676,3.1661,3.1647,3.1623,3.1788,3.1788,3.191,3.1911,3.1912]},{"header":{"parameterUnit":"m.s-1","parameterCategory":1,"la1":30.2991,"la2":30.254,"lo1":-89.0895,"lo2":-89.0444,"dy":0.0017,"dx":0.0017,"nx":28,"ny":28,"refTime":"2024-07-30T21:00:00:Z","depth":0,"parameterNumber":3,"parameterNumberName":"V-component_of_WINDS"},"data":[0,0,0,0,0,0,0,0,0,0,0,0,0,0,0,0,0,0,0,0,0,0,0,0,0,0,0,0,0,0,0,0,0,0,0,0,0,0,0,0,0,0,0,0,0,0,0,0,0,0,0,0,0,0,0,0,0,0,-1.372,-1.372,0,-1.3732,-1.3732,-1.3732,-1.3706,-1.3705,-1.3705,-1.3704,-1.3716,-1.3717,-1.3718,0,0,0,0,0,0,0,0,0,0,0,0,0,-1.3675,-1.3676,-1.372,-1.372,-1.372,-1.3732,-1.3732,-1.3732,-1.3706,-1.3705,-1.3704,-1.3703,-1.3715,-1.3717,-1.3718,0,0,0,0,0,0,0,0,0,0,0,0,0,-1.3691,-1.3676,-1.372,-1.3709,-1.3708,-1.3732,-1.3732,-1.3732,-1.3707,-1.3705,-1.3704,-1.3703,-1.3715,-1.3717,-1.3718,-1.3753,0,0,-1.3723,-1.3724,0,0,0,0,0,0,0,0,-1.369,-1.3693,-1.371,-1.3709,-1.3708,-1.3716,-1.372,-1.3739,-1.3707,-1.3707,-1.3704,-1.3702,-1.3717,-1.3718,-1.3723,-1.3754,-1.3754,-1.3723,-1.3724,-1.3725,-1.3725,0,0,0,0,0,0,0,-1.3689,-1.3692,-1.3724,-1.371,-1.3709,-1.3703,-1.3704,-1.3724,-1.3719,-1.3707,-1.3705,-1.3707,-1.3716,-1.3722,-1.3723,-1.3755,-1.3723,-1.3725,-1.3726,-1.3726,-1.3814,-1.3816,0,0,0,0,0,0,-1.3689,-1.3691,-1.3724,-1.3725,-1.3696,-1.3705,-1.3706,-1.3715,-1.3718,-1.3718,-1.3708,-1.3706,-1.372,-1.3721,-1.3724,-1.3765,-1.3725,-1.3727,-1.3727,-1.3813,-1.3815,-1.3816,0,0,0,0,0,0,-1.3689,-1.3693,-1.3724,-1.3708,-1.3711,-1.3707,-1.3717,-1.3716,-1.3721,-1.3719,-1.3718,-1.3714,-1.3719,-1.3721,-1.3746,-1.3765,-1.3727,-1.3729,-1.3811,-1.3814,-1.3815,-1.3847,0,0,0,0,0,0,-1.3687,-1.3692,-1.3706,-1.3708,-1.3712,-1.3746,-1.3718,-1.3717,-1.3724,-1.3721,-1.3725,-1.3725,-1.3718,-1.3744,-1.3748,-1.3766,-1.373,-1.381,-1.3812,-1.3815,-1.3844,-1.385,-1.3855,0,0,0,0,0,-1.3686,-1.3714,-1.3706,-1.3711,-1.3729,-1.3747,-1.3749,-1.3741,-1.3726,-1.3739,-1.3738,-1.3724,-1.3762,-1.3747,-1.3751,-1.377,-1.3809,-1.3812,-1.3815,-1.3842,-1.3849,-1.3855,0,0,0,0,0,0,-1.3714,-1.3714,-1.3706,-1.3736,-1.3742,-1.3743,-1.3759,-1.3749,-1.3759,-1.3756,-1.3745,-1.3746,-1.3773,-1.3774,-1.3756,-1.3804,-1.3783,-1.3787,-1.3802,-1.3809,-1.3814,-1.3813,-1.3731,0,0,0,0,0,-1.3723,-1.3738,-1.3738,-1.3764,-1.3768,-1.3763,-1.3771,-1.3764,-1.377,-1.3772,-1.3772,-1.3778,-1.3791,-1.38,-1.3812,-1.3845,-1.3845,-1.386,-1.3866,-1.387,-1.3873,-1.389,-1.3897,-1.3826,-1.3826,-1.3826,0,0,-1.3743,-1.3746,-1.3756,-1.377,-1.3774,-1.379,-1.3765,-1.3783,-1.3794,-1.3775,-1.3798,-1.3799,-1.3804,-1.3833,-1.3846,-1.3835,-1.3893,-1.3874,-1.3877,-1.3878,-1.3894,-1.3901,-1.3907,-1.3828,-1.3828,-1.3828,0,0,-1.3788,-1.3791,-1.3813,-1.3818,-1.3824,-1.3821,-1.3826,-1.3829,-1.3829,-1.3852,-1.3837,-1.3851,-1.3874,-1.3879,-1.3884,-1.3931,-1.3919,-1.3935,-1.3962,-1.3979,-1.3985,-1.3989,-1.4006,-1.4012,-1.3939,-1.3939,-1.3939,0,-1.3812,-1.3835,-1.3826,-1.3845,-1.3852,-1.3835,-1.3857,-1.3862,-1.3872,-1.3877,-1.3864,-1.3893,-1.3896,-1.3925,-1.3937,-1.3942,-1.3948,-1.3934,-1.3985,-1.3989,-1.3994,-1.4009,-1.4015,-1.3941,-1.3941,-1.394,-1.394,0,-1.3864,-1.388,-1.3898,-1.3907,-1.3916,-1.3937,-1.3931,-1.3941,-1.3934,-1.3932,-1.3956,-1.3959,-1.3971,-1.3978,-1.3971,-1.4006,-1.3999,-1.3986,-1.3964,-1.4003,-1.4017,-1.4023,-1.3944,-1.3943,-1.3942,-1.3942,0,0,-1.3925,-1.3931,-1.3937,-1.3941,-1.3947,-1.3959,-1.3979,-1.3992,-1.4,-1.4008,-1.4024,-1.4044,-1.4032,-1.4038,-1.4032,-1.4047,-1.4083,-1.4031,-1.4031,-1.404,-1.4122,-1.4132,-1.4139,-1.4075,-1.4077,-1.4077,-1.4121,0,-1.3969,-1.4003,-1.3996,-1.4029,-1.4044,-1.4029,-1.4046,-1.4051,-1.405,-1.4063,-1.4061,-1.4076,-1.4059,-1.4062,-1.4077,-1.4076,-1.4099,-1.4072,-1.409,-1.4091,-1.4088,-1.4146,-1.4156,-1.4198,-1.4127,-1.4128,-1.4129,0,-1.4024,-1.4034,-1.4069,-1.4072,-1.4078,-1.4094,-1.4104,-1.4116,-1.4122,-1.4121,-1.4128,-1.4119,-1.4138,-1.4117,-1.4144,-1.4126,-1.4133,-1.4134,-1.4135,-1.4136,-1.4112,-1.4148,-1.4211,-1.4217,-1.4138,-1.4137,-1.4136,0,-1.4065,-1.4087,-1.411,-1.4114,-1.4119,-1.413,-1.4133,-1.4138,-1.4146,-1.4155,-1.416,-1.4172,-1.4178,-1.4187,-1.4181,-1.4166,-1.4209,-1.4187,-1.4208,-1.4208,-1.4217,-1.4216,-1.4281,-1.4223,-1.4223,-1.4223,-1.4222,0,-1.4114,-1.4135,-1.4128,-1.4143,-1.4167,-1.4159,-1.4183,-1.4184,-1.4188,-1.4202,-1.419,-1.4204,-1.4196,-1.4209,-1.4205,-1.4227,-1.423,-1.4229,-1.4228,-1.423,-1.423,-1.4234,-1.4231,-1.4224,-1.4224,-1.4224,-1.4223,0,-1.4163,-1.4159,-1.4184,-1.4186,-1.4188,-1.4205,-1.4207,-1.4221,-1.4219,-1.4237,-1.4241,-1.4239,-1.4253,-1.4249,-1.4265,-1.4262,-1.4291,-1.4286,-1.4289,-1.4287,-1.4308,-1.4306,-1.4377,-1.4386,-1.4322,-1.4323,-1.4323,0,-1.4194,-1.421,-1.4215,-1.4224,-1.4227,-1.4241,-1.4249,-1.4242,-1.4251,-1.4259,-1.4272,-1.4286,-1.4296,-1.4321,-1.432,-1.4332,-1.4327,-1.4351,-1.4329,-1.4331,-1.4327,-1.4326,-1.4327,-1.4355,-1.4356,-1.4357,-1.4357,0,-1.4249,-1.4247,-1.4259,-1.427,-1.428,-1.4289,-1.4297,-1.4304,-1.4298,-1.4308,-1.4324,-1.4332,-1.4348,-1.4362,-1.4373,-1.4376,-1.4366,-1.4365,-1.437,-1.4372,-1.4373,-1.4372,-1.43,-1.4363,-1.4362,-1.4362,-1.4361,-1.4361,-1.429,-1.4304,-1.4309,-1.4323,-1.4328,-1.4336,-1.4348,-1.4348,-1.4361,-1.4374,-1.4369,-1.4386,-1.4392,-1.4406,-1.441,-1.4424,-1.4414,-1.4422,-1.4424,-1.4426,-1.4428,-1.4371,-1.4426,-1.4425,-1.4425,-1.4425,-1.4425,0,-1.4344,-1.4347,-1.436,-1.4371,-1.4382,-1.4372,-1.438,-1.4389,-1.4405,-1.4411,-1.4422,-1.4439,-1.4453,-1.4454,-1.4466,-1.4477,-1.4473,-1.448,-1.4479,-1.448,-1.4436,-1.443,-1.4484,-1.4484,-1.4484,-1.4484,-1.4484,-1.4484,-1.4374,-1.4397,-1.4395,-1.442,-1.4423,-1.444,-1.4445,-1.4452,-1.4457,-1.4477,-1.4488,-1.4489,-1.4493,-1.4506,-1.4517,-1.4517,-1.4522,-1.4532,-1.453,-1.4489,-1.4483,-1.4477,-1.4472,-1.4533,-1.4533,-1.4573,-1.4573,-1.4573]}]]